Location: Buch am Rannenberg
(48.6989°N, 10.6399°E)
Time: 07:51:49
(UTC+00:00)

STARLINK-80 - Pass Details

Date: 07 June 2020
Orbit: 487 x 491 km, 53.0° (Epoch: 07 July)

Event Time Altitude Azimuth Distance (km) Brightness Sun altitude
Exits shadow 01:55:57 - 267° (W) 2,201 6.3 -10.1°
Reaches altitude 10° 01:57:16 10° 271° (W) 1,686 5.8 -10.0°
Maximum altitude 02:00:58 49° 348° (NNW) 642 4.3 -9.6°
Drops below altitude 10° 02:04:42 10° 64° (ENE) 1,688 7.3 -9.2°
Sets 02:06:55 0° 70° (ENE) 2,570 8.2 -9.0°
